History for DABS

Tebessa, Algeria

Daily Weekly Monthly
Daily Summary for Monday, June 29, 2015
  Actual: Average: Record:
Temperature
Mean Temperature: 78 °F / 26 °C - :  
Max Temperature: 95 °F / 35 °C 94 °F / 34 °C - ()
Min Temperature: 61 °F / 16 °C 62 °F / 16 °C - ()
Cooling Degree Days 13    
Growing Degree Days 28 (Base 50)    
Moisture
Dew Point 56 °F / 14 °C    
Average Humidity 44    
Maximum Humidity 77    
Minimum Humidity 19    
Precipitation
Precipitation 0.00 in / 0.0 cm 0.02 in / 0.4 cm - ()
Sea Level Pressure
Sea Level Pressure 30.19 in / 1022.21 hPa   
Wind
Wind Speed 4 mph / 6 km/h ()  
Max Wind Speed 20 mph / 32 km/h   
Max Gust Speed -   
Visibility 13.7 miles / 21.9 kilometers   
Events     

Key: T is trace of precipitation, MM is missing value
Source: Averaged Metar Reports

Graphs

Observations

History Graphs Observations

Obs Go Here...

Features

Weather Apps

WunderRadio

Weather Underground Apps
Check out our wide variety of mobile and setup applications.

Weather Underground Applications

Top of Page

Copyright© 2015
Weather Underground, Inc.
Time(CET)TemperatureDew PointHumidity Sea Level Pressure Visibility Wind DirectionWind SpeedGust SpeedPrecipitationEvents Conditions
12:00 AM 73.4 °F / 23.0 °C 55.4 °F / 13.0 °C 53% 30.21 in / 1023 hPa - Calm Calm - N/A   Clear
1:00 AM 68 °F / 20 °C 58 °F / 14 °C 61%  in /  hPa 9 miles / 15 kilometers Calm Calm - -  
1:00 AM 68.0 °F / 20.0 °C 57.2 °F / 14.0 °C 68% 30.21 in / 1023 hPa - Calm Calm - N/A   Clear
1:30 AM 68.0 °F / 20.0 °C 57.2 °F / 14.0 °C 68% 30.21 in / 1023 hPa - Calm Calm - N/A   Clear
3:00 AM 64.4 °F / 18.0 °C 53.6 °F / 12.0 °C 68% 30.21 in / 1023 hPa - Calm Calm - N/A   Clear
4:00 AM 64 °F / 18 °C 56 °F / 13 °C 67%  in /  hPa 9 miles / 15 kilometers Calm Calm - -  
4:00 AM 64.4 °F / 18.0 °C 55.4 °F / 13.0 °C 73% 30.21 in / 1023 hPa - Calm Calm - N/A   Clear
4:30 AM 62.6 °F / 17.0 °C 55.4 °F / 13.0 °C 77% 30.21 in / 1023 hPa - Calm Calm - N/A   Clear
5:00 AM 62.6 °F / 17.0 °C 55.4 °F / 13.0 °C 77% 30.21 in / 1023 hPa - Calm Calm - N/A   Clear
6:00 AM 62.6 °F / 17.0 °C 55.4 °F / 13.0 °C 77% 30.21 in / 1023 hPa - Calm Calm - N/A   Clear
6:30 AM 62.6 °F / 17.0 °C 55.4 °F / 13.0 °C 77% 30.21 in / 1023 hPa - Calm Calm - N/A   Clear
7:00 AM 64 °F / 18 °C 52 °F / 11 °C 56%  in /  hPa 12 miles / 20 kilometers Calm Calm - -  
7:00 AM 64.4 °F / 18.0 °C 51.8 °F / 11.0 °C 64% 30.18 in / 1022 hPa - Calm Calm - N/A   Clear
7:30 AM 68.0 °F / 20.0 °C 55.4 °F / 13.0 °C 64% 30.18 in / 1022 hPa - Calm Calm - N/A   Clear
8:00 AM 71.6 °F / 22.0 °C 57.2 °F / 14.0 °C 60% 30.18 in / 1022 hPa - Calm Calm - N/A   Clear
8:30 AM 75.2 °F / 24.0 °C 53.6 °F / 12.0 °C 47% 30.18 in / 1022 hPa - NW 4.6 mph / 7.4 km/h - N/A   Clear
9:00 AM 78.8 °F / 26.0 °C 51.8 °F / 11.0 °C 39% 30.21 in / 1023 hPa - Calm Calm - N/A   Clear
9:30 AM 78.8 °F / 26.0 °C 57.2 °F / 14.0 °C 47% 30.21 in / 1023 hPa - NNW 4.6 mph / 7.4 km/h - N/A   Clear
10:00 AM 83 °F / 29 °C 59 °F / 15 °C 34%  in /  hPa 16 miles / 25 kilometers Calm Calm - -  
10:00 AM 84.2 °F / 29.0 °C 59.0 °F / 15.0 °C 42% 30.21 in / 1023 hPa - Calm Calm - N/A   Clear
10:30 AM 84.2 °F / 29.0 °C 59.0 °F / 15.0 °C 42% 30.21 in / 1023 hPa - NNW 11.5 mph / 18.5 km/h - N/A   Clear
11:00 AM 86.0 °F / 30.0 °C 59.0 °F / 15.0 °C 40% 30.21 in / 1023 hPa - Calm Calm - N/A   Clear
11:30 AM 87.8 °F / 31.0 °C 59.0 °F / 15.0 °C 38% 30.21 in / 1023 hPa - NW 4.6 mph / 7.4 km/h - N/A   Clear
12:00 PM 89.6 °F / 32.0 °C 57.2 °F / 14.0 °C 33% 30.21 in / 1023 hPa - West 4.6 mph / 7.4 km/h - N/A   Clear
12:30 PM 91.4 °F / 33.0 °C 59.0 °F / 15.0 °C 34% 30.18 in / 1022 hPa - North 19.6 mph / 31.5 km/h - N/A   Clear
1:00 PM 92 °F / 33 °C 59 °F / 15 °C 23%  in /  hPa 16 miles / 25 kilometers NNW 18.4 mph / 29.6 km/h - -  
1:00 PM 91.4 °F / 33.0 °C 59.0 °F / 15.0 °C 34% 30.18 in / 1022 hPa - NNW 18.4 mph / 29.6 km/h - N/A   Clear
1:30 PM 93.2 °F / 34.0 °C 59.0 °F / 15.0 °C 32% 30.18 in / 1022 hPa - North 16.1 mph / 25.9 km/h - N/A   Clear
2:00 PM 93.2 °F / 34.0 °C 59.0 °F / 15.0 °C 32% 30.18 in / 1022 hPa - NNW 11.5 mph / 18.5 km/h - N/A   Clear
2:30 PM 93.2 °F / 34.0 °C 59.0 °F / 15.0 °C 32% 30.18 in / 1022 hPa - North 13.8 mph / 22.2 km/h - N/A   Clear
3:00 PM 93.2 °F / 34.0 °C 59.0 °F / 15.0 °C 32% 30.18 in / 1022 hPa - NNW 13.8 mph / 22.2 km/h - N/A   Clear
3:30 PM 93.2 °F / 34.0 °C 59.0 °F / 15.0 °C 32% 30.15 in / 1021 hPa - NNW 11.5 mph / 18.5 km/h - N/A   Clear
4:00 PM 94 °F / 34 °C 57 °F / 14 °C 19%  in /  hPa 16 miles / 25 kilometers NNW 13.8 mph / 22.2 km/h - -  
4:00 PM 95.0 °F / 35.0 °C 57.2 °F / 14.0 °C 28% 30.15 in / 1021 hPa - NNW 13.8 mph / 22.2 km/h - N/A   Clear
4:30 PM 95.0 °F / 35.0 °C 57.2 °F / 14.0 °C 28% 30.15 in / 1021 hPa - WNW 6.9 mph / 11.1 km/h - N/A   Clear
5:00 PM 93.2 °F / 34.0 °C 57.2 °F / 14.0 °C 30% 30.15 in / 1021 hPa - North 16.1 mph / 25.9 km/h - N/A   Clear
5:30 PM 93.2 °F / 34.0 °C 57.2 °F / 14.0 °C 30% 30.15 in / 1021 hPa - NNE 18.4 mph / 29.6 km/h - N/A   Clear
6:00 PM 93.2 °F / 34.0 °C 57.2 °F / 14.0 °C 30% 30.15 in / 1021 hPa - NNE 18.4 mph / 29.6 km/h - N/A   Clear
6:30 PM 91.4 °F / 33.0 °C 57.2 °F / 14.0 °C 31% 30.15 in / 1021 hPa - NNE 9.2 mph / 14.8 km/h - N/A   Clear
7:00 PM 89 °F / 32 °C 55 °F / 13 °C 22%  in /  hPa 16 miles / 25 kilometers NNE 9.2 mph / 14.8 km/h - -  
7:00 PM 89.6 °F / 32.0 °C 55.4 °F / 13.0 °C 31% 30.15 in / 1021 hPa - NNE 9.2 mph / 14.8 km/h - N/A   Clear
7:30 PM 87.8 °F / 31.0 °C 55.4 °F / 13.0 °C 33% 30.15 in / 1021 hPa - NE 11.5 mph / 18.5 km/h - N/A   Clear
8:00 PM 86.0 °F / 30.0 °C 55.4 °F / 13.0 °C 35% 30.15 in / 1021 hPa - NE 11.5 mph / 18.5 km/h - N/A   Clear
8:30 PM 84.2 °F / 29.0 °C 55.4 °F / 13.0 °C 37% 30.15 in / 1021 hPa - Calm Calm - N/A   Clear
9:00 PM 84.2 °F / 29.0 °C 55.4 °F / 13.0 °C 37% 30.18 in / 1022 hPa - East 4.6 mph / 7.4 km/h - N/A   Clear
9:30 PM 82.4 °F / 28.0 °C 55.4 °F / 13.0 °C 39% 30.18 in / 1022 hPa - Calm Calm - N/A   Clear
10:00 PM 79 °F / 26 °C 54 °F / 12 °C 31%  in /  hPa 16 miles / 25 kilometers Calm Calm - -  
10:00 PM 78.8 °F / 26.0 °C 53.6 °F / 12.0 °C 42% 30.21 in / 1023 hPa - Calm Calm - N/A   Clear
10:30 PM 77.0 °F / 25.0 °C 53.6 °F / 12.0 °C 44% 30.21 in / 1023 hPa - ESE 4.6 mph / 7.4 km/h - N/A   Clear
11:00 PM 75.2 °F / 24.0 °C 53.6 °F / 12.0 °C 47% 30.21 in / 1023 hPa - Calm Calm - N/A   Clear
11:30 PM 75.2 °F / 24.0 °C 53.6 °F / 12.0 °C 47% 30.21 in / 1023 hPa - Calm Calm - N/A   Clear